Ellensburg, WA
on Saturday, January 12, 2013

Saturday
Previous Day Next Day
Daily Summary
 ActualAverage (KYKM)Record (KYKM)
Temperature
Mean Temperature °F 30°F  
Max Temperature 26°F 38°F 59°F (2014)
Min Temperature 10°F 23°F -6°F (1949)
Degree Days
Heating Degree Days 47 35  
Month to date heating degree days 431  
Since 1 July heating degree days 3094  
Cooling Degree Days 0 0  
Month to date cooling degree days 0  
Year to date cooling degree days 0  
Moisture
Dew Point 9°F   
Average Humidity 73    
Maximum Humidity 81    
Minimum Humidity 60    
Precipitation
Precipitation 0.00 in 0.04 in 0.45 in (1973)
Month to date precipitation 0.51  
Year to date precipitation 0.51  
Snow
Snow 0.00 in 0.20 in 3.40 in (1969)
Month to date snowfall 2.7  
Year to date snowfall 2.7  
Since 1 July snowfall 15.7  
Snow Depth in   
Wind
Wind Speed 1 mph   
Max Wind Speed 4 mph   
Max Gust Speed mph   
Visibility 10 miles   
Events     

Key: T is trace of precipitation, MM is missing value
Source: NWS Daily Summary
Time(PST)TemperatureDew PointHumidity Pressure Visibility Wind DirectionWind SpeedGust SpeedPrecipitationEvents Conditions
12:53 AM 15.1°F 9.0°F 77% 30.30 in 10.0 miles Calm Calm - N/A   Clear
1:53 AM 15.1°F 9.0°F 77% 30.30 in 10.0 miles Calm Calm - N/A   Clear
2:53 AM 14.0°F 8.1°F 77% 30.30 in 10.0 miles ENE 3.5 mph - N/A   Clear
3:53 AM 10.9°F 5.0°F 77% 30.30 in 10.0 miles NNW 3.5 mph - N/A   Clear
4:53 AM 12.0°F 6.1°F 77% 30.30 in 10.0 miles Calm Calm - N/A   Clear
5:53 AM 10.9°F 5.0°F 77% 30.31 in 10.0 miles Calm Calm - N/A   Clear
6:53 AM 12.0°F 6.1°F 77% 30.32 in 10.0 miles Calm Calm - N/A   Clear
7:53 AM 12.0°F 6.1°F 77% 30.35 in 10.0 miles Calm Calm - N/A   Clear
8:53 AM 12.9°F 7.0°F 77% 30.37 in 10.0 miles Calm Calm - N/A   Clear
9:53 AM 17.1°F 10.9°F 77% 30.38 in 10.0 miles Calm Calm - N/A   Clear
10:53 AM 21.0°F 12.9°F 71% 30.38 in 10.0 miles Calm Calm - N/A   Clear
11:53 AM 21.9°F 12.9°F 68% 30.37 in 10.0 miles Calm Calm - N/A   Clear
12:53 PM 25.0°F 12.9°F 60% 30.35 in 10.0 miles Calm Calm - N/A   Clear
1:53 PM 26.1°F 14.0°F 60% 30.36 in 10.0 miles Calm Calm - N/A   Clear
2:53 PM 25.0°F 14.0°F 63% 30.37 in 10.0 miles Calm Calm - N/A   Clear
3:53 PM 25.0°F 12.9°F 60% 30.38 in 10.0 miles Calm Calm - N/A   Clear
4:53 PM 19.9°F 12.0°F 71% 30.39 in 10.0 miles West 3.5 mph - N/A   Clear
5:53 PM 15.1°F 8.1°F 74% 30.40 in 10.0 miles Calm Calm - N/A   Clear
6:53 PM 12.9°F 8.1°F 81% 30.41 in 9.0 miles SE 3.5 mph - N/A   Clear
7:53 PM 12.9°F 7.0°F 77% 30.43 in 9.0 miles NE 3.5 mph - N/A   Clear
8:53 PM 10.9°F 5.0°F 77% 30.42 in 10.0 miles Calm Calm - N/A   Clear
9:53 PM 12.0°F 5.0°F 73% 30.41 in 10.0 miles NW 3.5 mph - N/A   Clear
10:53 PM 10.9°F 3.9°F 73% 30.41 in 10.0 miles Calm Calm - N/A   Clear
11:53 PM 10.9°F 6.1°F 81% 30.42 in 5.0 miles Calm Calm - N/A   Haze
Moon Phase
Jan. 12 Jan. 18 Jan. 26 Feb. 03 Feb. 10
Sunrise:07:45 AM (PST) Moon Rise:08:00 AM (PST)1/12
Sunset:04:36 PM (PST) Moon Set:06:20 PM (PST)1/12

Copyright © 2014 The Weather Underground, Inc.